Weather History for Paris / Charles De Gaulle, France

Change the Weather History Date:

Monday, January 13, 2014

  Actual Average Record
Temperature  
Mean Temperature 46 °F -  
Max Temperature 50 °F 43 °F 59 °F (1998)
Min Temperature 41 °F 34 °F 23 °F (2003)
Degree Days  
Heating Degree Days 20    
Moisture  
Dew Point 42 °F    
Average Humidity 89    
Maximum Humidity 100    
Minimum Humidity 73    
Precipitation  
Precipitation 0.04 in - - ()
Sea Level Pressure  
Sea Level Pressure 29.88 in    
Wind  
Wind Speed 8 mph ()    
Max Wind Speed 12 mph    
Max Gust Speed 20 mph    
Visibility 6.8 miles    
Events Rain    
Averages and records for this station are not official NWS values.
T = Trace of Precipitation, MM = Missing Value Source: Averaged Metar Reports

Daily Weather History Graph

Daily Weather History Graph

Search for Another Location

Airport:

Trip Planner

Search our weather history database for the weather conditions in past years. The results will help you decide how hot, cold, wet, or windy it might be!

Date:

Astronomy

Jan. 13, 2014 Rise Set
Actual Time 8:40 AM CET 5:17 PM CET
Civil Twilight 8:03 AM CET 5:53 PM CET
Nautical Twilight 7:24 AM CET 6:33 PM CET
Astronomical Twilight 6:46 AM CET 7:11 PM CET
Moon 3:21 PM CET (1/13) 6:14 AM CET (1/13)
Length of Visible Light 9h 49m
Length of Day
8h 37m
Waxing Gibbous, 93% of the Moon is Illuminated
Jan 13
Waxing Gibbous
Jan 16
Full
Jan 24
Last Quarter
Jan 30
New
Feb 6
First Quarter

Hourly Weather History & Observations

Time (CET) Temp. Windchill Dew Point Humidity Pressure Visibility Wind Dir Wind Speed Gust Speed Precip Events Conditions
12:00 AM 43 °F - 42 °F 92% 29.97 in 4 mi South 11.5 mph - -   Overcast
12:00 AM 42.8 °F 36.6 °F 41.0 °F 93% 29.95 in 4.3 mi South 11.5 mph - N/A   Mostly Cloudy
12:30 AM 44.6 °F 39.2 °F 42.8 °F 93% 29.95 in 4.3 mi South 10.4 mph - N/A Rain Light Rain
1:00 AM 44 °F - 43 °F 93% 29.95 in 4 mi SSE 10.4 mph - - Rain Light Rain
1:00 AM 44.6 °F 39.2 °F 42.8 °F 93% 29.92 in 4.3 mi SSE 10.4 mph - N/A Rain Light Rain
1:30 AM 44.6 °F 39.2 °F 42.8 °F 93% 29.92 in 4.3 mi South 10.4 mph - N/A   Unknown
2:00 AM 44 °F - 43 °F 94% 29.95 in 6 mi South 9.2 mph - - Rain Light Rain
2:00 AM 44.6 °F 39.7 °F 42.8 °F 93% 29.92 in 5.6 mi South 9.2 mph - N/A   Mostly Cloudy
2:30 AM 44.6 °F 39.2 °F 42.8 °F 93% 29.92 in 5.6 mi South 10.4 mph - N/A   Overcast
3:00 AM 45 °F - 43 °F 91% 29.95 in 4 mi South 8.1 mph - -   Overcast
3:00 AM 44.6 °F 40.2 °F 42.8 °F 93% 29.92 in 4.3 mi South 8.1 mph - N/A   Mostly Cloudy
3:30 AM 44.6 °F 40.2 °F 42.8 °F 93% 29.95 in 4.3 mi South 8.1 mph - N/A   Overcast
4:00 AM 45 °F - 43 °F 92% 29.96 in 5 mi SSW 9.2 mph - -   Partly Cloudy
4:00 AM 44.6 °F 39.7 °F 42.8 °F 93% 29.95 in 5.0 mi SSW 9.2 mph - N/A   Mostly Cloudy
4:30 AM 44.6 °F 40.2 °F 42.8 °F 93% 29.95 in 6.2 mi SSW 8.1 mph - N/A   Mostly Cloudy
5:00 AM 45 °F - 43 °F 90% 29.96 in 6 mi SSW 5.8 mph - -   Overcast
5:00 AM 44.6 °F 41.4 °F 42.8 °F 93% 29.95 in 6.2 mi SSW 5.8 mph - N/A   Mostly Cloudy
5:30 AM 44.6 °F 39.7 °F 44.6 °F 100% 29.92 in 6.2 mi SW 9.2 mph - N/A   Mostly Cloudy
6:00 AM 46 °F - 44 °F 89% 29.96 in 7 mi SSW 10.4 mph - -   Mostly Cloudy
6:00 AM 44.6 °F 39.2 °F 42.8 °F 93% 29.95 in 6.2 mi SSW 10.4 mph - N/A   Mostly Cloudy
6:30 AM 44.6 °F 39.2 °F 42.8 °F 93% 29.95 in 5.0 mi South 10.4 mph - N/A   Mostly Cloudy
7:00 AM 44 °F - 43 °F 93% 29.95 in 5 mi SSW 9.2 mph - -   Partly Cloudy
7:00 AM 44.6 °F 39.7 °F 42.8 °F 93% 29.92 in 5.0 mi SSW 9.2 mph - N/A   Mostly Cloudy
7:30 AM 44.6 °F 40.2 °F 42.8 °F 93% 29.92 in 5.6 mi SSW 8.1 mph - N/A   Partly Cloudy
8:00 AM 43 °F - 42 °F 93% 29.96 in 6 mi SSW 6.9 mph - -   Scattered Clouds
8:00 AM 42.8 °F 38.6 °F 41.0 °F 93% 29.95 in 5.6 mi SSW 6.9 mph - N/A   Scattered Clouds
8:30 AM 42.8 °F 39.3 °F 41.0 °F 93% 29.95 in 5.0 mi South 5.8 mph - N/A   Unknown
9:00 AM 43 °F - 42 °F 92% 29.96 in 4 mi South 5.8 mph - -   Mostly Cloudy
9:00 AM 42.8 °F 39.3 °F 41.0 °F 93% 29.95 in 4.3 mi South 5.8 mph - N/A   Unknown
9:30 AM 42.8 °F 39.3 °F 42.8 °F 100% 29.95 in 4.3 mi South 5.8 mph - N/A   Mostly Cloudy
10:00 AM 44 °F - 43 °F 94% 29.96 in 4 mi South 5.8 mph - -   Scattered Clouds
10:00 AM 44.6 °F 41.4 °F 42.8 °F 93% 29.95 in 4.3 mi South 5.8 mph - N/A   Mostly Cloudy
10:30 AM 44.6 °F 42.2 °F 42.8 °F 93% 29.95 in 4.3 mi SSW 4.6 mph - N/A   Mostly Cloudy
11:00 AM 45 °F - 44 °F 92% 29.95 in 4 mi South 3.5 mph - -   Mostly Cloudy
11:00 AM 44.6 °F 43.1 °F 42.8 °F 93% 29.92 in 4.3 mi South 3.5 mph - N/A   Mostly Cloudy
11:30 AM 46.4 °F 43.5 °F 44.6 °F 93% 29.92 in 4.3 mi WSW 5.8 mph - N/A   Mostly Cloudy
12:00 PM 47 °F - 45 °F 91% 29.93 in 6 mi SW 8.1 mph - -   Mostly Cloudy
12:00 PM 46.4 °F 42.4 °F 44.6 °F 93% 29.92 in 6.2 mi SW 8.1 mph - N/A   Mostly Cloudy
12:30 PM 48.2 °F - 44.6 °F 87% 29.89 in 6.2 mi SSW 8.1 mph - N/A   Scattered Clouds
1:00 PM 48 °F - 45 °F 84% 29.91 in 6 mi SSW 8.1 mph - -   Partly Cloudy
1:00 PM 48.2 °F - 44.6 °F 87% 29.89 in 6.2 mi SW 8.1 mph - N/A   Mostly Cloudy
1:30 PM 48.2 °F - 44.6 °F 87% 29.89 in 6.2 mi SSW 10.4 mph - N/A   Scattered Clouds
2:00 PM 48.2 °F - 42.8 °F 82% 29.86 in 6.2 mi SW 8.1 mph - N/A   Mostly Cloudy
2:30 PM 48.2 °F - 42.8 °F 82% 29.83 in 6.2 mi SSW 6.9 mph - N/A   Mostly Cloudy
3:00 PM 49 °F - 43 °F 73% 29.85 in 7 mi SW 6.9 mph - -   Mostly Cloudy
3:00 PM 48.2 °F - 42.8 °F 82% 29.83 in 6.2 mi SW 6.9 mph - N/A   Mostly Cloudy
3:30 PM 48.2 °F - 44.6 °F 87% 29.83 in 6.2 mi SW 6.9 mph - N/A   Mostly Cloudy
4:00 PM 49 °F - 44 °F 75% 29.84 in 31 mi SSW 6.9 mph - -   Clear
4:00 PM 50.0 °F - 42.8 °F 76% 29.83 in 6.2 mi SSW 8.1 mph - N/A   Scattered Clouds
4:30 PM 48.2 °F - 42.8 °F 82% 29.83 in 6.2 mi South 6.9 mph - N/A   Scattered Clouds
5:00 PM 47 °F - 43 °F 80% 29.83 in 19 mi South 6.9 mph - -   Partly Cloudy
5:00 PM 46.4 °F 42.9 °F 42.8 °F 87% 29.80 in 6.2 mi South 6.9 mph - N/A   Scattered Clouds
5:30 PM 46.4 °F 43.5 °F 42.8 °F 87% 29.80 in 6.2 mi South 5.8 mph - N/A   Scattered Clouds
6:00 PM 45 °F - 41 °F 80% 29.82 in 19 mi SSE 6.9 mph - -   Partly Cloudy
6:00 PM 44.6 °F 40.7 °F 41.0 °F 87% 29.80 in 6.2 mi SSE 6.9 mph - N/A   Scattered Clouds
6:30 PM 46.4 °F 41.9 °F 41.0 °F 81% 29.80 in 6.2 mi South 9.2 mph - N/A   Scattered Clouds
7:00 PM 45 °F - 41 °F 82% 29.82 in 19 mi South 8.1 mph - -   Partly Cloudy
7:00 PM 44.6 °F 40.2 °F 41.0 °F 87% 29.80 in 6.2 mi South 8.1 mph - N/A   Scattered Clouds
7:30 PM 44.6 °F 40.2 °F 41.0 °F 87% 29.80 in 6.2 mi South 8.1 mph 19.6 mph N/A   Partly Cloudy
8:00 PM 44 °F - 40 °F 81% 29.79 in 19 mi South 10.4 mph - -   Scattered Clouds
8:00 PM 44.6 °F 39.7 °F 41.0 °F 87% 29.77 in 6.2 mi South 9.2 mph - N/A   Partly Cloudy
8:30 PM 42.8 °F 37.0 °F 41.0 °F 93% 29.77 in 6.2 mi SSE 10.4 mph - N/A   Mostly Cloudy
9:00 PM 43 °F - 40 °F 85% 29.79 in 19 mi South 9.2 mph - -   Mostly Cloudy
9:00 PM 42.8 °F 37.5 °F 39.2 °F 87% 29.77 in 6.2 mi South 9.2 mph - N/A   Mostly Cloudy
9:30 PM 44.6 °F 38.8 °F 41.0 °F 87% 29.74 in 6.2 mi South 11.5 mph - N/A   Partly Cloudy
10:00 PM 43 °F - 39 °F 82% 29.77 in 16 mi South 10.4 mph - -   Mostly Cloudy
10:00 PM 42.8 °F 37.0 °F 39.2 °F 87% 29.74 in - South 10.4 mph - N/A   Clear
10:30 PM 42.8 °F 38.6 °F 39.2 °F 87% 29.74 in - South 6.9 mph - N/A   Clear
11:00 PM 43 °F - 39 °F 81% 29.75 in 16 mi South 11.5 mph - -   Scattered Clouds
11:00 PM 42.8 °F 36.6 °F 39.2 °F 87% 29.74 in - South 11.5 mph - N/A   Clear
11:30 PM 42.8 °F 37.0 °F 39.2 °F 87% 29.71 in 6.2 mi South 10.4 mph - N/A   Partly Cloudy